Location: Eberbach
(49.4690°N, 8.9930°E)
Time: 17:26:31
(UTC+02:00)

ISS - Pass Details

Date: 02 October 2021
Orbit: 417 x 423 km, 51.6° (Epoch: 20 October)

Event Time Altitude Azimuth Distance (km) Brightness Sun altitude
Rises 19:29:44 0° 288° (WNW) 2,365 1.8 -5.6°
Reaches altitude 10° 19:31:50 10° 288° (WNW) 1,500 0.6 -6.0°
Maximum altitude 19:35:12 89° 210° (SSW) 424 -3.7 -6.5°
Drops below altitude 10° 19:38:34 10° 110° (ESE) 1,497 -1.6 -7.1°
Enters shadow 19:38:52 - 110° (ESE) 1,620 -1.4 -7.1°
